TimeEDT,TemperatureF,Dew PointF,Humidity,Sea Level PressureIn,VisibilityMPH,Wind Direction,Wind SpeedMPH,Gust SpeedMPH,PrecipitationIn,Events,Conditions,WindDirDegrees,DateUTC
12:15 AM,62.6,48.2,59,29.87,10.0,NW,11.5,-,N/A,,Clear,320,2013-09-14 04:15:00
12:35 AM,62.6,48.2,59,29.87,10.0,NW,13.8,18.4,N/A,,Clear,320,2013-09-14 04:35:00
12:55 AM,62.6,48.2,59,29.88,10.0,NW,9.2,-,N/A,,Clear,320,2013-09-14 04:55:00
1:15 AM,62.6,48.2,59,29.89,10.0,NNW,11.5,-,N/A,,Clear,330,2013-09-14 05:15:00
1:35 AM,62.6,48.2,59,29.89,10.0,WNW,6.9,-,N/A,,Clear,300,2013-09-14 05:35:00
1:55 AM,60.8,48.2,63,29.89,10.0,NW,8.1,-,N/A,,Clear,310,2013-09-14 05:55:00
2:15 AM,62.6,46.4,55,29.89,10.0,WNW,10.4,-,N/A,,Clear,300,2013-09-14 06:15:00
2:35 AM,62.6,46.4,55,29.90,10.0,NW,9.2,-,N/A,,Clear,310,2013-09-14 06:35:00
2:55 AM,59.0,46.4,63,29.90,10.0,WNW,6.9,-,N/A,,Clear,300,2013-09-14 06:55:00
3:15 AM,57.2,46.4,67,29.90,10.0,NW,6.9,-,N/A,,Clear,310,2013-09-14 07:15:00
3:35 AM,59.0,46.4,63,29.90,10.0,NW,8.1,-,N/A,,Clear,310,2013-09-14 07:35:00
3:55 AM,55.4,46.4,72,29.90,10.0,NW,6.9,-,N/A,,Clear,310,2013-09-14 07:55:00
4:15 AM,57.2,46.4,67,29.91,10.0,NW,5.8,-,N/A,,Clear,310,2013-09-14 08:15:00
4:35 AM,57.2,46.4,67,29.92,10.0,WNW,6.9,-,N/A,,Clear,300,2013-09-14 08:35:00
4:55 AM,57.2,46.4,67,29.92,10.0,NW,8.1,-,N/A,,Clear,310,2013-09-14 08:55:00
5:15 AM,57.2,46.4,67,29.92,10.0,NW,6.9,-,N/A,,Clear,310,2013-09-14 09:15:00
5:35 AM,57.2,46.4,67,29.93,10.0,WNW,4.6,-,N/A,,Clear,300,2013-09-14 09:35:00
5:55 AM,57.2,46.4,67,29.93,10.0,WNW,5.8,-,N/A,,Clear,300,2013-09-14 09:55:00
6:15 AM,57.2,46.4,67,29.94,10.0,WNW,5.8,-,N/A,,Clear,290,2013-09-14 10:15:00
6:35 AM,57.2,46.4,67,29.95,10.0,West,3.5,-,N/A,,Clear,280,2013-09-14 10:35:00
6:55 AM,57.2,46.4,67,29.95,10.0,WNW,4.6,-,N/A,,Clear,300,2013-09-14 10:55:00
7:15 AM,59.0,46.4,63,29.97,10.0,WNW,5.8,-,N/A,,Clear,300,2013-09-14 11:15:00
7:35 AM,59.0,46.4,63,29.97,10.0,NW,9.2,-,N/A,,Clear,310,2013-09-14 11:35:00
7:55 AM,62.6,46.4,55,29.97,10.0,NW,11.5,-,N/A,,Clear,320,2013-09-14 11:55:00
8:15 AM,62.6,46.4,55,29.97,10.0,NNW,9.2,-,N/A,,Clear,330,2013-09-14 12:15:00
8:35 AM,64.4,46.4,52,29.97,10.0,NNW,10.4,-,N/A,,Clear,330,2013-09-14 12:35:00
8:55 AM,66.2,46.4,49,29.98,10.0,NW,13.8,-,N/A,,Clear,320,2013-09-14 12:55:00
9:15 AM,64.4,44.6,49,30.00,10.0,NNW,11.5,-,N/A,,Clear,340,2013-09-14 13:15:00
9:35 AM,66.2,44.6,46,30.00,10.0,NNW,10.4,18.4,N/A,,Clear,330,2013-09-14 13:35:00
9:55 AM,66.2,44.6,46,30.00,10.0,NNW,13.8,18.4,N/A,,Clear,330,2013-09-14 13:55:00
10:15 AM,66.2,44.6,46,30.00,10.0,NW,10.4,-,N/A,,Clear,320,2013-09-14 14:15:00
10:35 AM,69.8,44.6,40,30.00,10.0,NW,10.4,-,N/A,,Clear,310,2013-09-14 14:35:00
10:55 AM,69.8,44.6,40,30.00,10.0,NW,9.2,19.6,N/A,,Clear,320,2013-09-14 14:55:00
11:15 AM,69.8,44.6,40,30.00,10.0,NW,12.7,-,N/A,,Clear,320,2013-09-14 15:15:00
11:35 AM,69.8,44.6,40,30.00,10.0,NNW,15.0,-,N/A,,Clear,340,2013-09-14 15:35:00
11:55 AM,68.0,46.4,46,30.00,10.0,NW,10.4,17.3,N/A,,Clear,320,2013-09-14 15:55:00
12:15 PM,66.2,46.4,49,30.01,10.0,NW,13.8,20.7,N/A,,Partly Cloudy,310,2013-09-14 16:15:00
12:35 PM,68.0,46.4,46,30.01,10.0,NW,11.5,17.3,N/A,,Scattered Clouds,320,2013-09-14 16:35:00
12:55 PM,69.8,46.4,43,30.02,10.0,WNW,10.4,-,N/A,,Mostly Cloudy,300,2013-09-14 16:55:00
1:15 PM,69.8,46.4,43,30.01,10.0,WNW,10.4,-,N/A,,Overcast,290,2013-09-14 17:15:00
1:35 PM,71.6,46.4,41,30.02,10.0,NW,11.5,-,N/A,,Overcast,320,2013-09-14 17:35:00
1:55 PM,69.8,46.4,43,30.01,10.0,WNW,11.5,-,N/A,,Mostly Cloudy,290,2013-09-14 17:55:00
2:15 PM,73.4,46.4,38,30.01,10.0,WNW,15.0,-,N/A,,Mostly Cloudy,300,2013-09-14 18:15:00
2:35 PM,69.8,44.6,40,30.01,10.0,NW,9.2,-,N/A,,Mostly Cloudy,320,2013-09-14 18:35:00
2:55 PM,69.8,46.4,43,30.01,10.0,NNW,12.7,-,N/A,,Overcast,330,2013-09-14 18:55:00
3:15 PM,71.6,46.4,41,30.02,10.0,NW,13.8,-,N/A,,Overcast,310,2013-09-14 19:15:00
3:35 PM,69.8,46.4,43,30.03,10.0,WNW,11.5,-,N/A,,Overcast,300,2013-09-14 19:35:00
3:55 PM,69.8,46.4,43,30.03,10.0,WNW,12.7,-,N/A,,Overcast,290,2013-09-14 19:55:00
4:15 PM,68.0,46.4,46,30.03,10.0,WNW,11.5,16.1,N/A,,Overcast,290,2013-09-14 20:15:00
4:35 PM,69.8,46.4,43,30.04,10.0,WNW,11.5,-,N/A,,Overcast,300,2013-09-14 20:35:00
4:55 PM,68.0,46.4,46,30.04,10.0,WNW,10.4,-,N/A,,Overcast,300,2013-09-14 20:55:00
5:15 PM,66.2,46.4,49,30.05,10.0,WNW,10.4,-,N/A,,Overcast,290,2013-09-14 21:15:00
5:35 PM,66.2,46.4,49,30.05,10.0,WNW,10.4,-,N/A,,Overcast,300,2013-09-14 21:35:00
5:55 PM,64.4,46.4,52,30.06,10.0,WNW,10.4,-,N/A,,Mostly Cloudy,300,2013-09-14 21:55:00
6:15 PM,64.4,46.4,52,30.06,10.0,WNW,6.9,-,N/A,,Scattered Clouds,300,2013-09-14 22:15:00
6:35 PM,62.6,48.2,59,30.07,10.0,West,5.8,-,N/A,,Partly Cloudy,280,2013-09-14 22:35:00
6:55 PM,62.6,48.2,59,30.08,10.0,WNW,5.8,-,N/A,,Clear,290,2013-09-14 22:55:00
7:15 PM,60.8,46.4,59,30.08,10.0,NW,5.8,-,N/A,,Clear,310,2013-09-14 23:15:00
7:35 PM,60.8,46.4,59,30.09,10.0,WNW,8.1,-,N/A,,Clear,290,2013-09-14 23:35:00
7:55 PM,57.2,46.4,67,30.10,10.0,WNW,9.2,-,N/A,,Clear,300,2013-09-14 23:55:00
8:15 PM,57.2,46.4,67,30.11,10.0,WNW,5.8,-,N/A,,Clear,290,2013-09-15 00:15:00
8:35 PM,59.0,46.4,63,30.12,10.0,WNW,6.9,-,N/A,,Clear,290,2013-09-15 00:35:00
8:55 PM,57.2,46.4,67,30.13,10.0,WNW,5.8,-,N/A,,Clear,290,2013-09-15 00:55:00
9:15 PM,55.4,46.4,72,30.13,10.0,WNW,6.9,-,N/A,,Clear,300,2013-09-15 01:15:00
9:35 PM,53.6,44.6,72,30.14,10.0,WNW,4.6,-,N/A,,Clear,290,2013-09-15 01:35:00
9:55 PM,53.6,44.6,72,30.14,10.0,WNW,4.6,-,N/A,,Clear,290,2013-09-15 01:55:00
10:15 PM,51.8,46.4,82,30.14,10.0,West,5.8,-,N/A,,Clear,280,2013-09-15 02:15:00
10:35 PM,53.6,46.4,77,30.14,10.0,West,4.6,-,N/A,,Clear,260,2013-09-15 02:35:00
10:55 PM,53.6,46.4,77,30.14,10.0,West,6.9,-,N/A,,Clear,270,2013-09-15 02:55:00
11:15 PM,53.6,46.4,77,30.14,10.0,West,5.8,-,N/A,,Clear,280,2013-09-15 03:15:00
11:35 PM,50.0,44.6,82,30.14,10.0,WNW,3.5,-,N/A,,Clear,290,2013-09-15 03:35:00
11:55 PM,48.2,44.6,87,30.14,10.0,WNW,4.6,-,N/A,,Clear,290,2013-09-15 03:55:00